[[{"header":{"parameterUnit":"m.s-1","parameterCategory":1,"la1":30.2991,"la2":30.254,"lo1":-89.0895,"lo2":-89.0444,"dy":0.0017,"dx":0.0017,"nx":28,"ny":28,"refTime":"2025-09-17T03:00:00:Z","depth":0,"parameterNumber":2,"parameterNumberName":"U-component_of_WINDS"},"data":[0,0,0,0,0,0,0,0,0,0,0,0,0,0,0,0,0,0,0,0,0,0,0,0,0,0,0,0,0,0,0,0,0,0,0,0,0,0,0,0,0,0,0,0,0,0,0,0,0,0,0,0,0,0,0,0,0,0,-0.1009,-0.1009,0,-0.097,-0.097,-0.0969,-0.094,-0.094,-0.094,-0.0939,-0.0898,-0.0897,-0.0896,0,0,0,0,0,0,0,0,0,0,0,0,0,-0.1058,-0.1057,-0.1009,-0.1009,-0.1009,-0.097,-0.097,-0.0969,-0.094,-0.094,-0.0939,-0.0939,-0.0898,-0.0897,-0.0896,0,0,0,0,0,0,0,0,0,0,0,0,0,-0.103,-0.1057,-0.101,-0.0989,-0.0987,-0.0971,-0.097,-0.0969,-0.094,-0.094,-0.0939,-0.0939,-0.0898,-0.0897,-0.0896,-0.0896,0,0,-0.0892,-0.0891,0,0,0,0,0,0,0,0,-0.1031,-0.1028,-0.0993,-0.0991,-0.0988,-0.096,-0.0972,-0.0944,-0.094,-0.0958,-0.0939,-0.0939,-0.0919,-0.0916,-0.0909,-0.0894,-0.0892,-0.0892,-0.0891,-0.089,-0.089,0,0,0,0,0,0,0,-0.1033,-0.103,-0.0994,-0.0992,-0.099,-0.0982,-0.0978,-0.0966,-0.0941,-0.0956,-0.0954,-0.095,-0.0917,-0.091,-0.0908,-0.0891,-0.0892,-0.0891,-0.089,-0.0889,-0.0875,-0.0875,0,0,0,0,0,0,-0.1039,-0.1031,-0.0995,-0.0993,-0.1009,-0.0981,-0.0976,-0.0969,-0.0941,-0.0936,-0.095,-0.0949,-0.0913,-0.0909,-0.0906,-0.0905,-0.089,-0.0889,-0.0888,-0.0874,-0.0875,-0.0875,0,0,0,0,0,0,-0.104,-0.1036,-0.0997,-0.1011,-0.1006,-0.0981,-0.0973,-0.0969,-0.0962,-0.0936,-0.0932,-0.0948,-0.0912,-0.0908,-0.0899,-0.0903,-0.0889,-0.0887,-0.0874,-0.0875,-0.0875,-0.0902,0,0,0,0,0,0,-0.1041,-0.1036,-0.1036,-0.1012,-0.1005,-0.099,-0.0973,-0.0968,-0.096,-0.0957,-0.0933,-0.0929,-0.0912,-0.0901,-0.0898,-0.0901,-0.0886,-0.0873,-0.0874,-0.0875,-0.0901,-0.0904,-0.0906,0,0,0,0,0,-0.1043,-0.1045,-0.1036,-0.1032,-0.1005,-0.0991,-0.0987,-0.0968,-0.096,-0.096,-0.0944,-0.0929,-0.0903,-0.09,-0.0896,-0.09,-0.0873,-0.0874,-0.0875,-0.09,-0.0903,-0.0906,0,0,0,0,0,0,-0.107,-0.1041,-0.1031,-0.1025,-0.1011,-0.0986,-0.0985,-0.0972,-0.0959,-0.0957,-0.0933,-0.0928,-0.0922,-0.0909,-0.0907,-0.0898,-0.0886,-0.0886,-0.0907,-0.091,-0.0912,-0.0916,-0.0885,0,0,0,0,0,-0.1075,-0.1067,-0.1042,-0.1039,-0.1032,-0.101,-0.1003,-0.099,-0.0973,-0.0967,-0.095,-0.0934,-0.0923,-0.0915,-0.0903,-0.0899,-0.0894,-0.0899,-0.0902,-0.0904,-0.0905,-0.0903,-0.0905,-0.0878,-0.0878,-0.0878,0,0,-0.1086,-0.1069,-0.1065,-0.1044,-0.1031,-0.1023,-0.1005,-0.0996,-0.099,-0.0965,-0.0956,-0.0943,-0.0924,-0.0918,-0.0914,-0.0907,-0.0911,-0.0905,-0.0907,-0.0907,-0.0904,-0.0906,-0.0909,-0.0879,-0.0879,-0.0879,0,0,-0.1102,-0.1088,-0.1084,-0.1072,-0.1053,-0.1038,-0.1037,-0.1014,-0.1005,-0.0995,-0.0977,-0.0969,-0.0949,-0.0936,-0.0927,-0.0939,-0.0926,-0.0935,-0.095,-0.0948,-0.095,-0.0952,-0.0957,-0.0959,-0.0936,-0.0936,-0.0936,0,-0.1118,-0.1105,-0.1084,-0.1077,-0.1069,-0.1047,-0.1043,-0.1032,-0.1009,-0.1004,-0.0997,-0.0972,-0.0958,-0.0949,-0.0952,-0.0945,-0.0943,-0.0939,-0.0951,-0.0953,-0.0954,-0.0959,-0.0961,-0.0937,-0.0937,-0.0937,-0.0937,0,-0.1125,-0.1117,-0.1116,-0.1096,-0.1087,-0.1082,-0.1061,-0.1054,-0.1042,-0.1028,-0.1018,-0.1,-0.0984,-0.0981,-0.0968,-0.097,-0.0967,-0.0956,-0.0943,-0.0959,-0.0963,-0.0964,-0.0939,-0.0939,-0.0939,-0.0938,0,0,-0.1157,-0.1126,-0.1127,-0.1118,-0.1095,-0.1088,-0.1081,-0.1067,-0.1062,-0.1047,-0.1042,-0.1026,-0.1016,-0.1006,-0.0991,-0.0989,-0.1001,-0.0978,-0.0978,-0.0984,-0.1003,-0.1013,-0.1015,-0.0991,-0.0992,-0.0992,-0.1005,0,-0.117,-0.1158,-0.114,-0.1134,-0.1126,-0.1105,-0.11,-0.1086,-0.1072,-0.1063,-0.1048,-0.1038,-0.1025,-0.1019,-0.1016,-0.1,-0.1005,-0.0999,-0.0987,-0.0986,-0.0993,-0.1017,-0.1026,-0.104,-0.1006,-0.1007,-0.1007,0,-0.1184,-0.1171,-0.1165,-0.1144,-0.114,-0.1135,-0.1121,-0.1112,-0.1096,-0.1086,-0.1075,-0.106,-0.1052,-0.104,-0.103,-0.1026,-0.102,-0.1012,-0.1012,-0.1011,-0.0998,-0.1017,-0.1043,-0.1046,-0.1009,-0.1009,-0.1008,0,-0.1209,-0.119,-0.1185,-0.1177,-0.1152,-0.115,-0.1139,-0.1122,-0.1114,-0.1101,-0.1096,-0.1082,-0.1075,-0.1064,-0.1045,-0.1038,-0.1037,-0.1023,-0.1029,-0.103,-0.1031,-0.1031,-0.1058,-0.1025,-0.1025,-0.1025,-0.1025,0,-0.1226,-0.1224,-0.1196,-0.1192,-0.1189,-0.1167,-0.1164,-0.1152,-0.1137,-0.113,-0.1111,-0.1105,-0.108,-0.1071,-0.1056,-0.1051,-0.1047,-0.1039,-0.1036,-0.1042,-0.1043,-0.1038,-0.1037,-0.1025,-0.1025,-0.1025,-0.1025,0,-0.1255,-0.1236,-0.1228,-0.1205,-0.1199,-0.1198,-0.1178,-0.1174,-0.1159,-0.1151,-0.1148,-0.1126,-0.1115,-0.1095,-0.1078,-0.1068,-0.1065,-0.1058,-0.1071,-0.1069,-0.1077,-0.1077,-0.1102,-0.1104,-0.1069,-0.107,-0.107,0,-0.1267,-0.1265,-0.1242,-0.1236,-0.1227,-0.1218,-0.121,-0.1189,-0.1182,-0.1163,-0.1161,-0.1149,-0.1138,-0.1121,-0.1103,-0.109,-0.1083,-0.1093,-0.1081,-0.1088,-0.1085,-0.1086,-0.1086,-0.1096,-0.1097,-0.1097,-0.1097,0,-0.1292,-0.1283,-0.1273,-0.126,-0.1252,-0.1241,-0.1228,-0.1225,-0.1201,-0.1194,-0.1183,-0.1174,-0.1157,-0.1146,-0.113,-0.1119,-0.1104,-0.1101,-0.1102,-0.1109,-0.1117,-0.1114,-0.108,-0.1101,-0.11,-0.11,-0.11,-0.11,-0.1314,-0.1311,-0.1295,-0.1284,-0.1273,-0.1262,-0.1257,-0.1242,-0.1233,-0.1218,-0.1206,-0.1196,-0.1179,-0.1157,-0.1147,-0.1139,-0.1132,-0.1133,-0.1133,-0.1134,-0.1138,-0.1118,-0.1136,-0.1136,-0.1136,-0.1135,-0.1135,0,-0.1339,-0.1328,-0.1318,-0.1302,-0.1294,-0.1281,-0.1267,-0.1261,-0.1253,-0.1239,-0.1228,-0.1216,-0.1205,-0.1186,-0.1173,-0.117,-0.1163,-0.1167,-0.1168,-0.1166,-0.1144,-0.1145,-0.1173,-0.1173,-0.1173,-0.1173,-0.1173,-0.1173,-0.1351,-0.1346,-0.1335,-0.1325,-0.1313,-0.1303,-0.1297,-0.1286,-0.1275,-0.1262,-0.1253,-0.1241,-0.1225,-0.1211,-0.12,-0.1194,-0.1191,-0.1198,-0.1191,-0.1171,-0.1167,-0.1164,-0.1165,-0.1197,-0.1197,-0.1213,-0.1214,-0.1214]},{"header":{"parameterUnit":"m.s-1","parameterCategory":1,"la1":30.2991,"la2":30.254,"lo1":-89.0895,"lo2":-89.0444,"dy":0.0017,"dx":0.0017,"nx":28,"ny":28,"refTime":"2025-09-17T03:00:00:Z","depth":0,"parameterNumber":3,"parameterNumberName":"V-component_of_WINDS"},"data":[0,0,0,0,0,0,0,0,0,0,0,0,0,0,0,0,0,0,0,0,0,0,0,0,0,0,0,0,0,0,0,0,0,0,0,0,0,0,0,0,0,0,0,0,0,0,0,0,0,0,0,0,0,0,0,0,0,0,2.8054,2.8053,0,2.8009,2.8009,2.8008,2.7971,2.797,2.797,2.797,2.792,2.7919,2.7918,0,0,0,0,0,0,0,0,0,0,0,0,0,2.8104,2.8103,2.8054,2.8053,2.8053,2.8009,2.8009,2.8008,2.7971,2.797,2.797,2.7969,2.792,2.7919,2.7918,0,0,0,0,0,0,0,0,0,0,0,0,0,2.8073,2.8103,2.8054,2.8029,2.8026,2.8009,2.8009,2.8008,2.7971,2.797,2.797,2.7969,2.792,2.7919,2.7918,2.792,0,0,2.7913,2.7913,0,0,0,0,0,0,0,0,2.8075,2.8071,2.8033,2.8031,2.8028,2.7995,2.8008,2.7978,2.7971,2.7992,2.797,2.7969,2.7945,2.7941,2.7934,2.7918,2.7916,2.7913,2.7912,2.7912,2.7911,0,0,0,0,0,0,0,2.8077,2.8073,2.8036,2.8033,2.8029,2.8019,2.8014,2.8002,2.7972,2.799,2.7987,2.7983,2.7943,2.7936,2.7933,2.7915,2.7913,2.7912,2.7911,2.791,2.7898,2.7899,0,0,0,0,0,0,2.8083,2.8075,2.8038,2.8035,2.805,2.8019,2.8013,2.8006,2.7972,2.7967,2.7983,2.7981,2.7939,2.7935,2.7931,2.7931,2.7912,2.791,2.7909,2.7898,2.7898,2.7899,0,0,0,0,0,0,2.8084,2.808,2.8039,2.8054,2.8048,2.8018,2.8011,2.8006,2.7998,2.7967,2.7961,2.7981,2.7938,2.7933,2.7923,2.7929,2.791,2.7908,2.7897,2.7898,2.7899,2.7933,0,0,0,0,0,0,2.8086,2.8081,2.8083,2.8054,2.8047,2.8034,2.8011,2.8005,2.7996,2.7993,2.7964,2.7958,2.7937,2.7926,2.7922,2.7927,2.7907,2.7896,2.7897,2.7898,2.7931,2.7935,2.7938,0,0,0,0,0,2.8088,2.8093,2.8083,2.8078,2.8049,2.8034,2.803,2.8007,2.7997,2.7997,2.7978,2.7959,2.793,2.7925,2.7921,2.7925,2.7896,2.7897,2.7898,2.7929,2.7934,2.7938,0,0,0,0,0,0,2.8121,2.8089,2.8077,2.8074,2.8057,2.8028,2.8028,2.8012,2.7997,2.7995,2.7965,2.7959,2.7953,2.7938,2.7934,2.7926,2.791,2.7911,2.7935,2.7939,2.7943,2.7946,2.7906,0,0,0,0,0,2.8128,2.812,2.8092,2.8092,2.8084,2.8058,2.8051,2.8034,2.8015,2.8008,2.7987,2.7969,2.7955,2.7946,2.7932,2.7929,2.7921,2.793,2.7933,2.7936,2.7936,2.7933,2.7936,2.7903,2.7903,2.7903,0,0,2.8142,2.8124,2.812,2.8098,2.8083,2.8074,2.8052,2.8044,2.8036,2.8006,2.7996,2.7981,2.7958,2.7951,2.7947,2.7939,2.7944,2.7938,2.794,2.7939,2.7934,2.7937,2.794,2.7904,2.7904,2.7904,0,0,2.8164,2.8149,2.8147,2.8133,2.8112,2.8095,2.8094,2.8068,2.8056,2.8046,2.8023,2.8014,2.7991,2.7976,2.7965,2.7981,2.7963,2.7977,2.7994,2.7991,2.7994,2.7996,2.8001,2.8003,2.7978,2.7978,2.7978,0,2.8183,2.817,2.8148,2.8141,2.8131,2.8105,2.8102,2.8089,2.8064,2.8057,2.8048,2.802,2.8002,2.7992,2.7996,2.7988,2.7986,2.798,2.7996,2.7997,2.7999,2.8003,2.8005,2.798,2.7979,2.7979,2.7979,0,2.8195,2.8187,2.8187,2.8165,2.8155,2.8151,2.8126,2.8119,2.8104,2.8087,2.8076,2.8055,2.8036,2.8033,2.8017,2.8019,2.8015,2.8001,2.7985,2.8004,2.8008,2.8009,2.7982,2.7982,2.7981,2.7981,0,0,2.8235,2.8201,2.8201,2.8191,2.8166,2.8158,2.8151,2.8134,2.8128,2.8112,2.8105,2.8087,2.8074,2.8062,2.8045,2.8042,2.8055,2.8029,2.8028,2.8033,2.8055,2.8065,2.8067,2.8044,2.8044,2.8044,2.8057,0,2.8251,2.8239,2.8219,2.8213,2.8204,2.818,2.8174,2.8157,2.8142,2.8131,2.8113,2.81,2.8085,2.8078,2.8074,2.8055,2.8059,2.8053,2.8035,2.8035,2.8041,2.8069,2.8079,2.8092,2.8058,2.8058,2.8058,0,2.8268,2.8254,2.8248,2.8224,2.8219,2.8215,2.8197,2.8188,2.8168,2.8157,2.8144,2.8125,2.8116,2.8102,2.8088,2.8085,2.8077,2.8066,2.8066,2.8062,2.8047,2.8065,2.8095,2.8097,2.806,2.806,2.806,0,2.8296,2.8276,2.8269,2.8261,2.8233,2.823,2.8218,2.8198,2.8189,2.8174,2.8167,2.815,2.8141,2.8127,2.8104,2.8097,2.8092,2.8077,2.8081,2.8082,2.808,2.8081,2.8109,2.8077,2.8077,2.8077,2.8077,0,2.8315,2.8312,2.8282,2.8278,2.8273,2.825,2.8245,2.8231,2.8214,2.8205,2.8183,2.8175,2.8146,2.8135,2.8117,2.8107,2.8103,2.8093,2.8088,2.8094,2.8095,2.8087,2.8085,2.8078,2.8078,2.8078,2.8077,0,2.8344,2.8325,2.8316,2.8291,2.8284,2.8282,2.8259,2.8254,2.8238,2.8227,2.8224,2.8197,2.8183,2.8159,2.8137,2.8125,2.8119,2.8111,2.8126,2.8122,2.8128,2.8127,2.815,2.8152,2.8121,2.8121,2.8122,0,2.8357,2.8355,2.833,2.8323,2.8312,2.8302,2.8293,2.827,2.8261,2.8239,2.8236,2.8221,2.8207,2.8185,2.8162,2.8146,2.8136,2.8146,2.8134,2.814,2.8135,2.8135,2.8134,2.8148,2.8149,2.8149,2.8149,0,2.8382,2.8373,2.8361,2.8347,2.8337,2.8324,2.831,2.8306,2.8279,2.827,2.8256,2.8246,2.8224,2.8208,2.8188,2.8174,2.8157,2.8154,2.8154,2.8159,2.8168,2.8162,2.8132,2.8153,2.8153,2.8152,2.8152,2.8152,2.8403,2.8399,2.8381,2.8369,2.8356,2.8344,2.8338,2.8321,2.8309,2.8291,2.8278,2.8265,2.8245,2.8217,2.8204,2.8192,2.8184,2.8184,2.8184,2.8184,2.8186,2.8171,2.8188,2.8188,2.8188,2.8188,2.8188,0,2.8425,2.8413,2.8402,2.8384,2.8374,2.8361,2.8345,2.8337,2.8326,2.831,2.8297,2.8281,2.8266,2.8243,2.8226,2.822,2.8212,2.8216,2.8216,2.8213,2.8194,2.8196,2.8224,2.8224,2.8224,2.8224,2.8224,2.8224,2.8436,2.8429,2.8417,2.8403,2.8391,2.8378,2.837,2.8358,2.8345,2.8328,2.8316,2.8302,2.8283,2.8264,2.8249,2.8243,2.8237,2.8244,2.8235,2.8217,2.8214,2.8211,2.8212,2.8243,2.8243,2.8254,2.8254,2.8254]}]]